Terminal Aerodrome Forecast
Issued by NWS

Home | Current Version | Previous Version | Text Only | Print | Product List | Glossary On
Versions: 1 2 3 4 5 6 7 8 9 10 11 12 13 14 15 16 17 18 19 20 21 22 23 24 25 26 27 28 29 30 31 32 33 34 35 36 37 38 39 40 41 42 43 44 45 46 47 48 49 50
000
FTUS41 KCTP 032320
TAFBFD
TAF
KBFD 032320Z 0400/0424 30006KT P6SM VCTS BKN045CB
     FM040100 VRB03KT P6SM SCT050
     FM040300 VRB03KT 4SM BR SCT250
     FM040600 VRB03KT 1/2SM FG BKN003
     FM041300 VRB03KT 4SM BR FEW003
     FM041500 VRB03KT P6SM SCT250=

USA.gov is the U.S. government's official web portal to all federal, state and local government web resources and services.